SCATSAT 1

Last updated on Wed Nov 05 2025 00:02:30 GMT+0000 (Coordinated Universal Time)

1 41790U 16059H 25308.63072123 .00001718 00000+0 23609-3 0 9993 2 41790 98.1523 4.8195 0054208 250.8451 108.6887 14.78727978 68396
UTC large
Height (km)
Speed (km/s)
/
Latitude / Longitude
Inclination (degrees)
Orbital Period (minutes)
Azimuth
Elevation
Range (km)
Doppler Factor

Next 0 passes for location: London (51.5072 / 0.1276)

Sorry there are no passes over London.